OK2ZAW-23 Weather Reports


time (UTC)temp
C
wind
direction
speed
KPH
gust
KPH
rain 1hr
cm
rain 24hr
cm
rain mn
cm
humidity
%
barometer
mb
20260505210506 14 0 0.0 0.0 0.00 0.00 0.00 55 1002.1
20260505205953 14 0 0.0 0.0 0.00 0.00 0.00 55 1002.0
20260505203344 15 0 0.0 0.0 0.00 0.00 0.00 52 1002.4
20260505202317 15 0 0.0 0.0 0.00 0.00 0.00 52 1002.3
20260505201803 15 0 0.0 0.0 0.00 0.00 0.00 50 1002.3
20260505201249 15 0 0.0 0.0 0.00 0.00 0.00 50 1002.3
20260505200736 16 0 0.0 0.0 0.00 0.00 0.00 49 1002.3
20260505200222 16 0 0.0 0.0 0.00 0.00 0.00 48 1002.3
20260505195154 16 0 0.0 0.0 0.00 0.00 0.00 47 1002.3
20260505194641 16 0 0.0 0.0 0.00 0.00 0.00 47 1002.3
20260505192545 17 0 0.0 0.0 0.00 0.00 0.00 45 1002.2
20260505192031 17 0 0.0 0.0 0.00 0.00 0.00 45 1002.3
20260505191518 17 0 0.0 0.0 0.00 0.00 0.00 44 1002.3
20260505191004 17 0 0.0 0.0 0.00 0.00 0.00 43 1002.3
20260505185421 18 0 0.0 0.0 0.00 0.00 0.00 42 1002.1
20260505184354 18 0 0.0 0.0 0.00 0.00 0.00 41 1002.1
20260505183839 18 0 0.0 0.0 0.00 0.00 0.00 39 1002.0
20260505183325 19 0 0.0 0.0 0.00 0.00 0.00 37 1002.0
20260505180715 20 0 0.0 0.0 0.00 0.00 0.00 35 1001.8
20260505174103 21 0 0.0 0.0 0.00 0.00 0.00 29 1001.8
20260505170936 23 0 0.0 0.0 0.00 0.00 0.00 25 1001.8
20260505170421 24 0 0.0 0.0 0.00 0.00 0.00 25 1001.9
20260505164837 25 0 0.0 0.0 0.00 0.00 0.00 24 1001.9
20260505161707 28 0 0.0 0.0 0.00 0.00 0.00 21 1002.3
20260505161153 29 0 0.0 0.0 0.00 0.00 0.00 20 1002.2
20260505152946 35 0 0.0 0.0 0.00 0.00 0.00 18 1002.3
20260505152430 35 0 0.0 0.0 0.00 0.00 0.00 18 1002.4
20260505151358 35 0 0.0 0.0 0.00 0.00 0.00 19 1002.5
20260505150842 35 0 0.0 0.0 0.00 0.00 0.00 18 1002.3
20260505140532 32 0 0.0 0.0 0.00 0.00 0.00 25 1003.5
20260505124129 26 0 0.0 0.0 0.00 0.00 0.00 33 1004.3
20260505123614 26 0 0.0 0.0 0.00 0.00 0.00 34 1004.3
20260505122031 25 0 0.0 0.0 0.00 0.00 0.00 35 1004.6
20260505121001 25 0 0.0 0.0 0.00 0.00 0.00 34 1004.5
20260505114348 23 0 0.0 0.0 0.00 0.00 0.00 36 1004.7
20260505113319 23 0 0.0 0.0 0.00 0.00 0.00 37 1004.9
20260505112804 23 0 0.0 0.0 0.00 0.00 0.00 37 1004.9
20260505110706 23 0 0.0 0.0 0.00 0.00 0.00 38 1005.0
20260505101956 22 0 0.0 0.0 0.00 0.00 0.00 39 1005.3
20260505100414 21 0 0.0 0.0 0.00 0.00 0.00 39 1005.4
20260505095859 21 0 0.0 0.0 0.00 0.00 0.00 39 1005.4
20260505093802 21 0 0.0 0.0 0.00 0.00 0.00 41 1005.6
20260505091705 20 0 0.0 0.0 0.00 0.00 0.00 41 1005.6
20260505091151 20 0 0.0 0.0 0.00 0.00 0.00 42 1005.6
20260505085608 19 0 0.0 0.0 0.00 0.00 0.00 42 1005.7
20260505084540 19 0 0.0 0.0 0.00 0.00 0.00 43 1005.7
20260505083512 18 0 0.0 0.0 0.00 0.00 0.00 43 1005.7
20260505082958 18 0 0.0 0.0 0.00 0.00 0.00 43 1005.7
20260505081931 18 0 0.0 0.0 0.00 0.00 0.00 44 1005.8
20260505075834 17 0 0.0 0.0 0.00 0.00 0.00 44 1006.1
20260505075320 17 0 0.0 0.0 0.00 0.00 0.00 45 1006.2
20260505074253 17 0 0.0 0.0 0.00 0.00 0.00 45 1006.1
20260505073225 16 0 0.0 0.0 0.00 0.00 0.00 45 1006.1
20260505072711 16 0 0.0 0.0 0.00 0.00 0.00 45 1006.1
20260505071644 16 0 0.0 0.0 0.00 0.00 0.00 46 1006.2
20260505064521 15 0 0.0 0.0 0.00 0.00 0.00 46 1006.4
20260505062426 15 0 0.0 0.0 0.00 0.00 0.00 46 1006.4
20260505061359 15 0 0.0 0.0 0.00 0.00 0.00 47 1006.4
20260505060846 15 0 0.0 0.0 0.00 0.00 0.00 47 1006.6
20260505060332 15 0 0.0 0.0 0.00 0.00 0.00 47 1006.5
20260505055818 14 0 0.0 0.0 0.00 0.00 0.00 47 1006.4
20260505055304 14 0 0.0 0.0 0.00 0.00 0.00 48 1006.6
20260505053724 14 0 0.0 0.0 0.00 0.00 0.00 49 1006.6
20260505053210 13 0 0.0 0.0 0.00 0.00 0.00 49 1006.6
20260505050602 13 0 0.0 0.0 0.00 0.00 0.00 51 1006.6
20260505041348 11 0 0.0 0.0 0.00 0.00 0.00 52 1006.7
20260505040834 11 0 0.0 0.0 0.00 0.00 0.00 52 1006.6
20260505040321 11 0 0.0 0.0 0.00 0.00 0.00 52 1006.6
20260505035808 11 0 0.0 0.0 0.00 0.00 0.00 52 1006.6
20260505035254 11 0 0.0 0.0 0.00 0.00 0.00 52 1006.6
20260505030040 12 0 0.0 0.0 0.00 0.00 0.00 51 1007.1
20260505025014 12 0 0.0 0.0 0.00 0.00 0.00 51 1007.2
20260505024500 12 0 0.0 0.0 0.00 0.00 0.00 50 1007.3
20260505022406 12 0 0.0 0.0 0.00 0.00 0.00 49 1007.5
20260505021339 12 0 0.0 0.0 0.00 0.00 0.00 49 1007.6
20260505020825 12 0 0.0 0.0 0.00 0.00 0.00 49 1007.6
20260505020312 12 0 0.0 0.0 0.00 0.00 0.00 49 1007.7
20260505015758 12 0 0.0 0.0 0.00 0.00 0.00 48 1007.8
20260505013704 13 0 0.0 0.0 0.00 0.00 0.00 46 1008.0
20260505013151 13 0 0.0 0.0 0.00 0.00 0.00 45 1007.9
20260505010543 13 0 0.0 0.0 0.00 0.00 0.00 45 1007.8
20260505010029 13 0 0.0 0.0 0.00 0.00 0.00 44 1007.8
20260505005517 14 0 0.0 0.0 0.00 0.00 0.00 44 1007.8
20260505005002 14 0 0.0 0.0 0.00 0.00 0.00 44 1007.8
20260505004449 14 0 0.0 0.0 0.00 0.00 0.00 44 1007.9
20260505003935 14 0 0.0 0.0 0.00 0.00 0.00 44 1007.9
20260505002354 15 0 0.0 0.0 0.00 0.00 0.00 44 1008.1
20260504234204 15 0 0.0 0.0 0.00 0.00 0.00 44 1008.5
20260504233651 15 0 0.0 0.0 0.00 0.00 0.00 44 1008.6
20260504232624 15 0 0.0 0.0 0.00 0.00 0.00 44 1008.6
20260504231556 15 0 0.0 0.0 0.00 0.00 0.00 44 1008.7
20260504230529 15 0 0.0 0.0 0.00 0.00 0.00 44 1008.8
20260504230015 15 0 0.0 0.0 0.00 0.00 0.00 44 1008.8
20260504225502 15 0 0.0 0.0 0.00 0.00 0.00 44 1008.9
20260504224434 15 0 0.0 0.0 0.00 0.00 0.00 44 1009.1
20260504222339 15 0 0.0 0.0 0.00 0.00 0.00 44 1009.1
20260504221312 15 0 0.0 0.0 0.00 0.00 0.00 45 1009.1
20260504220758 15 0 0.0 0.0 0.00 0.00 0.00 45 1009.1
20260504215731 15 0 0.0 0.0 0.00 0.00 0.00 44 1009.3
20260504214149 15 0 0.0 0.0 0.00 0.00 0.00 44 1009.4
20260504213637 15 0 0.0 0.0 0.00 0.00 0.00 45 1009.4
20260504212055 15 0 0.0 0.0 0.00 0.00 0.00 44 1009.6
20260504211541 15 0 0.0 0.0 0.00 0.00 0.00 44 1009.6